Weather History for Bishop, CA

Change the Weather History Date:

Sunday, October 6, 2013

  Actual Average Record
Temperature  
Mean Temperature 55 °F 60 °F  
Max Temperature 82 °F 80 °F 93 °F (1964)
Min Temperature 28 °F 41 °F 26 °F (1957)
Degree Days  
Heating Degree Days 10 5  
Month to date heating degree days 48 27  
Since 1 July heating degree days 104 70  
Cooling Degree Days 0 1  
Month to date cooling degree days 0 6  
Year to date cooling degree days 1337 1102  
Growing Degree Days 5 (Base 50)    
Moisture  
Dew Point 3 °F    
Average Humidity 21    
Maximum Humidity 39    
Minimum Humidity 3    
Precipitation  
Precipitation 0.00 in 0.01 in 1.29 in (1945)
Month to date precipitation 0.00 0.06  
Year to date precipitation 1.11 3.62  
Snow  
Snow 0.00 in 0.00 in - ()
Month to date snowfall 0.0 0.0  
Since 1 July snowfall 0.0 0.0  
Since 1 September snowfall 0.0 0.0  
Snow Depth 0.00 in    
Sea Level Pressure  
Sea Level Pressure 30.17 in    
Wind  
Wind Speed 5 mph (North)    
Max Wind Speed 15 mph    
Max Gust Speed 18 mph    
Visibility 10 miles    
Events      
T = Trace of Precipitation, MM = Missing Value Source: NWS Daily Summary

Daily Weather History Graph

Daily Weather History Graph

Search for Another Location

Airport:

Trip Planner

Search our weather history database for the weather conditions in past years. The results will help you decide how hot, cold, wet, or windy it might be!

Date:

Astronomy

Oct. 06, 2013 Rise Set
Actual Time 6:53 AM PDT 6:28 PM PDT
Civil Twilight 6:27 AM PDT 6:54 PM PDT
Nautical Twilight 5:57 AM PDT 7:24 PM PDT
Astronomical Twilight 5:26 AM PDT 7:55 PM PDT
Moon 8:40 AM PDT (10/6) 7:34 PM PDT (10/6)
Length of Visible Light 12h 27m
Length of Day
11h 35m
Waxing Crescent, 4% of the Moon is Illuminated
Oct 6
Waxing Crescent
Oct 11
First Quarter
Oct 18
Full
Oct 26
Last Quarter
Nov 3
New

Hourly Weather History & Observations

Time (PDT) Temp. Windchill Dew Point Humidity Pressure Visibility Wind Dir Wind Speed Gust Speed Precip Events Conditions
12:56 AM 37.9 °F 35.5 °F 5.0 °F 25% 30.28 in 10.0 mi North 3.5 mph - N/A   Clear
1:56 AM 37.0 °F 31.6 °F 3.9 °F 25% 30.28 in 10.0 mi North 6.9 mph - N/A   Clear
2:56 AM 37.9 °F 32.7 °F 3.9 °F 24% 30.26 in 10.0 mi North 6.9 mph - N/A   Clear
3:56 AM 37.0 °F 32.4 °F 3.9 °F 25% 30.25 in 10.0 mi North 5.8 mph - N/A   Clear
4:56 AM 35.1 °F 29.3 °F 5.0 °F 28% 30.25 in 10.0 mi NW 6.9 mph - N/A   Clear
5:56 AM 35.1 °F 30.1 °F 3.9 °F 27% 30.26 in 10.0 mi NW 5.8 mph - N/A   Clear
6:56 AM 28.9 °F 22.8 °F 6.1 °F 38% 30.30 in 10.0 mi NW 5.8 mph - N/A   Clear
7:56 AM 37.9 °F 35.5 °F 6.1 °F 27% 30.30 in 10.0 mi NNW 3.5 mph - N/A   Clear
8:56 AM 50.0 °F - 6.1 °F 17% 30.29 in 10.0 mi North 3.5 mph - N/A   Clear
9:56 AM 60.1 °F - 5.0 °F 11% 30.26 in 10.0 mi Calm Calm - N/A   Clear
10:56 AM 66.0 °F - 3.9 °F 9% 30.24 in 10.0 mi Calm Calm - N/A   Clear
11:56 AM 69.1 °F - 1.9 °F 7% 30.22 in 10.0 mi Calm Calm - N/A   Clear
12:56 PM 73.0 °F - 1.0 °F 6% 30.17 in 10.0 mi SE 3.5 mph - N/A   Clear
1:56 PM 75.9 °F - 1.0 °F 5% 30.12 in 10.0 mi ENE 5.8 mph - N/A   Clear
2:56 PM 79.0 °F - -5.1 °F 4% 30.09 in 10.0 mi SE 6.9 mph - N/A   Clear
3:56 PM 80.1 °F - -9.9 °F 4% 30.06 in 10.0 mi SSE 13.8 mph - N/A   Clear
4:56 PM 79.0 °F - -0.9 °F 4% 30.06 in 10.0 mi SSE 12.7 mph - N/A   Clear
5:56 PM 75.0 °F - 3.0 °F 6% 30.06 in 10.0 mi SSE 10.4 mph - N/A   Clear
6:56 PM 70.0 °F - 5.0 °F 8% 30.07 in 10.0 mi South 5.8 mph - N/A   Clear
7:56 PM 66.0 °F - 3.0 °F 8% 30.08 in 10.0 mi SSW 8.1 mph - N/A   Clear
8:56 PM 55.0 °F - 5.0 °F 13% 30.09 in 10.0 mi Calm Calm - N/A   Clear
9:56 PM 54.0 °F - 6.1 °F 15% 30.08 in 10.0 mi NW 3.5 mph - N/A   Clear
10:56 PM 45.0 °F 42.6 °F 8.1 °F 22% 30.09 in 10.0 mi Variable 4.6 mph - N/A   Clear
11:56 PM 42.1 °F 39.2 °F 9.0 °F 26% 30.09 in 10.0 mi NNW 4.6 mph - N/A   Clear